TimeCST,TemperatureF,Dew PointF,Humidity,Sea Level PressureIn,VisibilityMPH,Wind Direction,Wind SpeedMPH,Gust SpeedMPH,PrecipitationIn,Events,Conditions,WindDirDegrees,DateUTC
12:15 AM,14.0,7.7,76,29.81,10.0,SE,6.9,-,N/A,,Clear,130,2014-02-13 06:15:00
12:35 AM,14.4,8.4,77,29.80,10.0,ESE,4.6,-,N/A,,Scattered Clouds,120,2014-02-13 06:35:00
12:55 AM,14.7,9.1,79,29.78,10.0,ESE,5.8,-,N/A,,Overcast,110,2014-02-13 06:55:00
1:15 AM,14.7,9.5,80,29.77,10.0,East,4.6,-,N/A,,Mostly Cloudy,90,2014-02-13 07:15:00
1:35 AM,14.9,10.0,81,29.75,10.0,East,5.8,-,N/A,,Scattered Clouds,90,2014-02-13 07:35:00
1:55 AM,14.9,10.4,82,29.74,10.0,East,8.1,-,N/A,,Mostly Cloudy,90,2014-02-13 07:55:00
2:15 AM,14.9,10.4,82,29.72,10.0,East,6.9,-,N/A,,Overcast,90,2014-02-13 08:15:00
2:35 AM,15.3,10.8,82,29.71,10.0,East,8.1,-,N/A,,Overcast,80,2014-02-13 08:35:00
2:55 AM,15.4,10.9,82,29.70,10.0,East,5.8,-,N/A,,Overcast,90,2014-02-13 08:55:00
3:15 AM,15.8,11.3,82,29.67,10.0,East,6.9,-,N/A,,Overcast,100,2014-02-13 09:15:00
3:35 AM,16.2,11.3,81,29.66,10.0,East,6.9,-,N/A,,Overcast,100,2014-02-13 09:35:00
3:55 AM,16.0,11.1,81,29.63,10.0,East,11.5,-,N/A,,Overcast,90,2014-02-13 09:55:00
4:15 AM,15.8,11.7,84,29.61,1.5,East,9.2,-,N/A,Snow,Light Snow,90,2014-02-13 10:15:00
4:35 AM,15.4,12.6,88,29.60,1.0,East,10.4,-,N/A,Snow,Snow,80,2014-02-13 10:35:00
4:55 AM,15.8,13.1,89,29.60,0.8,East,9.2,-,N/A,Snow,Snow,90,2014-02-13 10:55:00
5:15 AM,15.8,13.5,90,29.57,0.8,East,11.5,-,N/A,Snow,Snow,90,2014-02-13 11:15:00
5:35 AM,16.2,13.8,90,29.55,3.0,East,10.4,16.1,N/A,Snow,Light Snow,80,2014-02-13 11:35:00
5:55 AM,16.7,13.8,88,29.54,1.2,East,9.2,-,N/A,Snow,Light Snow,90,2014-02-13 11:55:00
6:15 AM,16.7,14.0,89,29.53,1.5,East,6.9,-,N/A,Snow,Light Snow,80,2014-02-13 12:15:00
6:35 AM,17.2,14.4,88,29.52,2.5,ENE,6.9,-,N/A,Snow,Light Snow,70,2014-02-13 12:35:00
6:55 AM,17.2,14.7,90,29.51,0.8,East,5.8,-,N/A,Snow,Snow,80,2014-02-13 12:55:00
7:15 AM,17.1,14.9,91,29.51,0.5,East,8.1,-,N/A,Snow,Snow,80,2014-02-13 13:15:00
7:35 AM,17.2,14.9,91,29.50,1.5,East,5.8,-,N/A,Snow,Light Snow,90,2014-02-13 13:35:00
7:55 AM,17.4,15.3,91,29.50,0.5,East,8.1,-,N/A,Snow,Snow,90,2014-02-13 13:55:00
8:15 AM,17.2,14.9,91,29.49,1.5,East,6.9,-,0.02,Snow,Light Snow,90,2014-02-13 14:15:00
8:35 AM,17.6,14.9,89,29.49,1.2,East,6.9,-,0.03,Snow,Light Snow,90,2014-02-13 14:35:00
8:55 AM,17.6,14.7,88,29.48,1.0,East,8.1,-,0.03,Snow,Light Snow,90,2014-02-13 14:55:00
9:15 AM,17.6,14.5,88,29.47,0.8,East,8.1,-,N/A,Snow,Light Snow,90,2014-02-13 15:15:00
9:35 AM,17.4,14.0,86,29.47,0.8,East,8.1,-,N/A,Snow,Light Snow,100,2014-02-13 15:35:00
9:55 AM,18.1,13.6,83,29.46,2.0,East,6.9,-,0.01,Snow,Light Snow,100,2014-02-13 15:55:00
10:15 AM,17.6,14.0,86,29.46,2.0,East,8.1,-,N/A,Snow,Light Snow,80,2014-02-13 16:15:00
10:35 AM,17.8,13.8,84,29.46,1.8,East,9.2,-,N/A,Snow,Light Snow,80,2014-02-13 16:35:00
10:55 AM,18.1,13.5,82,29.46,4.0,East,9.2,-,N/A,Snow,Light Snow,80,2014-02-13 16:55:00
11:15 AM,18.9,13.3,79,29.46,5.0,East,8.1,-,N/A,Snow,Light Snow,80,2014-02-13 17:15:00
11:35 AM,19.4,13.5,78,29.46,5.0,East,8.1,-,N/A,Snow,Light Snow,90,2014-02-13 17:35:00
11:55 AM,20.3,14.0,77,29.45,4.0,East,8.1,-,N/A,Snow,Light Snow,90,2014-02-13 17:55:00
12:15 PM,20.8,15.4,80,29.44,5.0,ENE,9.2,-,0.01,Snow,Light Snow,60,2014-02-13 18:15:00
12:35 PM,20.7,15.8,81,29.44,2.5,NE,8.1,-,0.01,Snow,Light Snow,40,2014-02-13 18:35:00
12:55 PM,20.8,15.4,80,29.44,4.0,NNE,9.2,-,0.01,Snow,Light Snow,30,2014-02-13 18:55:00
1:35 PM,20.7,16.0,82,29.45,1.5,NE,8.1,-,N/A,Snow,Light Snow,40,2014-02-13 19:35:00
1:55 PM,20.8,16.3,83,29.46,5.0,NE,4.6,-,N/A,Snow,Light Snow,40,2014-02-13 19:55:00
2:15 PM,20.8,16.3,83,29.47,2.5,North,3.5,-,N/A,Snow,Light Snow,360,2014-02-13 20:15:00
2:35 PM,20.8,15.6,80,29.48,2.0,Calm,Calm,-,N/A,Snow,Light Snow,0,2014-02-13 20:35:00
2:55 PM,20.8,15.8,81,29.49,3.0,Calm,Calm,-,N/A,Snow,Light Snow,0,2014-02-13 20:55:00
3:15 PM,20.3,16.7,86,29.50,2.5,Calm,Calm,-,N/A,Snow,Light Snow,0,2014-02-13 21:15:00
3:35 PM,21.4,18.0,87,29.51,1.2,WNW,4.6,-,N/A,Snow,Light Snow,300,2014-02-13 21:35:00
3:55 PM,21.9,18.7,87,29.52,1.0,NW,6.9,-,N/A,Snow,Light Snow,310,2014-02-13 21:55:00
4:15 PM,22.1,18.9,87,29.53,2.0,NNW,5.8,-,N/A,Snow,Light Snow,330,2014-02-13 22:15:00
4:35 PM,22.6,18.7,85,29.54,2.5,NNW,8.1,-,N/A,Snow,Light Snow,330,2014-02-13 22:35:00
4:55 PM,22.8,17.4,80,29.56,4.0,NNW,10.4,-,N/A,Snow,Light Snow,340,2014-02-13 22:55:00
5:15 PM,22.6,14.2,70,29.57,10.0,NNW,11.5,17.3,N/A,Snow,Light Snow,340,2014-02-13 23:15:00
5:35 PM,21.4,12.6,69,29.60,10.0,NNW,13.8,18.4,N/A,,Overcast,330,2014-02-13 23:35:00
7:35 PM,15.4,6.1,67,29.66,10.0,NNW,10.4,-,N/A,,Overcast,340,2014-02-14 01:35:00
8:35 PM,12.9,4.1,68,29.67,10.0,NW,13.8,25.3,N/A,,Scattered Clouds,320,2014-02-14 02:35:00
8:55 PM,12.6,3.9,68,29.67,10.0,NNW,9.2,17.3,N/A,,Mostly Cloudy,340,2014-02-14 02:55:00
9:15 PM,12.2,3.2,67,29.67,10.0,NNW,12.7,23.0,N/A,,Mostly Cloudy,330,2014-02-14 03:15:00
9:35 PM,11.3,3.2,70,29.68,10.0,North,9.2,-,N/A,,Scattered Clouds,350,2014-02-14 03:35:00
9:55 PM,10.8,2.5,69,29.68,10.0,North,12.7,16.1,N/A,,Clear,350,2014-02-14 03:55:00
10:15 PM,9.1,1.8,72,29.69,10.0,NNW,4.6,-,N/A,,Clear,340,2014-02-14 04:15:00
10:35 PM,9.0,1.8,73,29.69,10.0,NW,4.6,10.4,N/A,,Clear,320,2014-02-14 04:35:00
10:55 PM,8.4,1.0,72,29.71,10.0,NNW,11.5,16.1,N/A,,Clear,340,2014-02-14 04:55:00
11:15 PM,7.7,-0.0,71,29.72,10.0,NNW,10.4,-,N/A,,Clear,340,2014-02-14 05:15:00
11:35 PM,6.4,-0.6,73,29.74,10.0,East,3.5,-,N/A,,Scattered Clouds,80,2014-02-14 05:35:00
11:55 PM,6.4,-0.9,72,29.75,10.0,North,5.8,-,N/A,,Scattered Clouds,350,2014-02-14 05:55:00